Location: Newark
(50.1751°N, 5.6239°W)
Time: 22:24:11
(UTC+00:00)

ISS - Pass Details

Date: 27 September 2021
Orbit: 417 x 423 km, 51.6° (Epoch: 18 October)

Event Time Altitude Azimuth Distance (km) Brightness Sun altitude
Rises 19:43:32 0° 282° (WNW) 2,365 1.9 -15.8°
Reaches altitude 10° 19:45:38 10° 284° (WNW) 1,501 0.4 -16.1°
Maximum altitude 19:49:00 76° 11° (N) 436 -3.8 -16.6°
Enters shadow 19:49:55 45° 87° (E) 585 -3.5 -16.7°
